Van Nuys, CA

1:12 AM PDT on June 20, 2018 (GMT -0700)
Van Nuys

Weather History for KVNY - August, 2017

Change the Weather History Date:

Sunday, August 13, 2017

  Actual Average Record
Temperature  
Mean Temperature 77 °F -  
Max Temperature 91 °F 89 °F 102 °F (1996)
Min Temperature 63 °F 63 °F 59 °F (2010)
Cooling Degree Days 12    
Growing Degree Days 27 (Base 50)    
Moisture  
Dew Point 60 °F    
Average Humidity 70    
Maximum Humidity 93    
Minimum Humidity 26    
Precipitation  
Precipitation 0.00 in - - ()
Sea Level Pressure  
Sea Level Pressure 29.89 in    
Wind  
Wind Speed 5 mph (SE)    
Max Wind Speed 14 mph    
Max Gust Speed -    
Visibility 7 miles    
Events      
Averages and records for this station are not official NWS values.
T = Trace of Precipitation, MM = Missing Value Source: NWS Daily Summary

Daily Weather History Graph

Daily Weather History Graph

Search for Another Location

Airport or City:

Astronomy

Aug. 13, 2017 Rise Set
Actual Time 6:14 AM PDT 7:42 PM PDT
Civil Twilight 5:47 AM PDT 8:09 PM PDT
Nautical Twilight 5:15 AM PDT 8:41 PM PDT
Astronomical Twilight 4:41 AM PDT 9:14 PM PDT
Moon 11:37 PM PDT (8/13) 12:03 PM PDT (8/13)
Length of Visible Light 14h 22m
Length of Day
13h 28m
Waning Gibbous, 64% of the Moon is Illuminated
Aug 13
Waning Gibbous
Aug 14
Last Quarter
Aug 21
New
Aug 29
First Quarter
Sep 6
Full

Hourly Weather History & Observations

Time (PDT) Temp. Heat Index Dew Point Humidity Pressure Visibility Wind Dir Wind Speed Gust Speed Precip Events Conditions
12:21 AM 64.9 °F - 63.0 °F 93% 29.94 in 6.0 mi SSE 6.9 mph - N/A   Scattered Clouds
12:32 AM 64.9 °F - 63.0 °F 93% 29.94 in 6.0 mi SSE 6.9 mph - N/A   Mostly Cloudy
12:51 AM 64.9 °F - 63.0 °F 93% 29.91 in 6.0 mi SE 8.1 mph - N/A   Overcast
1:51 AM 64.9 °F - 63.0 °F 93% 29.91 in 5.0 mi SSE 4.6 mph - N/A   Overcast
2:51 AM 64.9 °F - 62.1 °F 90% 29.89 in 5.0 mi Calm Calm - N/A   Overcast
3:05 AM 66.0 °F - 62.1 °F 87% 29.91 in 5.0 mi Calm Calm - N/A   Overcast
3:51 AM 66.0 °F - 62.1 °F 87% 29.88 in 5.0 mi WSW 3.5 mph - N/A   Mostly Cloudy
3:59 AM 64.9 °F - 62.1 °F 90% 29.90 in 5.0 mi Calm Calm - N/A   Partly Cloudy
4:51 AM 64.9 °F - 62.1 °F 90% 29.88 in 5.0 mi Calm Calm - N/A   Clear
5:51 AM 63.0 °F - 61.0 °F 93% 29.90 in 5.0 mi South 4.6 mph - N/A   Clear
6:51 AM 64.0 °F - 62.1 °F 93% 29.91 in 3.0 mi SSE 3.5 mph - N/A   Mostly Cloudy
7:08 AM 64.0 °F - 62.1 °F 93% 29.94 in 3.0 mi SE 3.5 mph - N/A   Overcast
7:51 AM 64.9 °F - 62.1 °F 90% 29.93 in 3.0 mi SE 6.9 mph - N/A   Overcast
8:31 AM 66.0 °F - 62.1 °F 87% 29.96 in 4.0 mi SSE 3.5 mph - N/A   Overcast
8:51 AM 68.0 °F - 62.1 °F 81% 29.94 in 4.0 mi SE 3.5 mph - N/A   Haze
9:15 AM 68.0 °F - 62.1 °F 81% 29.96 in 4.0 mi Calm Calm - N/A   Haze
9:51 AM 71.1 °F - 61.0 °F 70% 29.94 in 5.0 mi NW 3.5 mph - N/A   Haze
10:51 AM 77.0 °F - 60.1 °F 56% 29.93 in 7.0 mi NW 3.5 mph - N/A   Clear
11:51 AM 82.9 °F 82.8 °F 59.0 °F 44% 29.91 in 9.0 mi Calm Calm - N/A   Clear
12:51 PM 88.0 °F 87.6 °F 60.1 °F 39% 29.89 in 7.0 mi Variable 5.8 mph - N/A   Clear
1:51 PM 91.0 °F 88.9 °F 55.0 °F 29% 29.86 in 7.0 mi South 8.1 mph - N/A   Clear
2:51 PM 91.0 °F - 52.0 °F 26% 29.85 in 10.0 mi SSE 11.5 mph - N/A   Clear
3:51 PM 88.0 °F 85.7 °F 53.1 °F 30% 29.84 in 10.0 mi South 13.8 mph - N/A   Clear
4:51 PM 88.0 °F - 52.0 °F 29% 29.83 in 10.0 mi ESE 9.2 mph - N/A   Clear
5:51 PM 84.0 °F 83.0 °F 55.9 °F 38% 29.83 in 10.0 mi SE 10.4 mph - N/A   Clear
6:51 PM 82.0 °F 81.4 °F 55.0 °F 39% 29.83 in 10.0 mi East 8.1 mph - N/A   Clear
7:51 PM 77.0 °F - 59.0 °F 54% 29.84 in 10.0 mi ESE 6.9 mph - N/A   Clear
8:51 PM 73.9 °F - 59.0 °F 59% 29.86 in 10.0 mi SE 4.6 mph - N/A   Clear
9:51 PM 72.0 °F - 59.0 °F 64% 29.87 in 10.0 mi East 4.6 mph - N/A   Clear
10:51 PM 70.0 °F - 61.0 °F 73% 29.88 in 10.0 mi ESE 4.6 mph - N/A   Clear
11:51 PM 66.9 °F - 60.1 °F 79% 29.88 in 10.0 mi ESE 8.1 mph - N/A   Clear